Location: ??????
(56.0120°N, 39.1740°E)
Time: 07:42:59
(UTC+00:00)

Lacrosse 5 rocket - Pass Details

Date: 14 April 2026
Orbit: 390 x 472 km, 57.0° (Epoch: 12 May)

Event Time Altitude Azimuth Distance (km) Brightness Sun altitude
Rises 17:55:01 0° 237° (WSW) 2,292 4.8 -11.5°
Reaches altitude 10° 17:57:06 10° 233° (SW) 1,431 3.6 -11.8°
Maximum altitude 18:00:13 55° 155° (SSE) 477 0.7 -12.1°
Enters shadow 18:03:11 11° 77° (ENE) 1,371 3.0 -12.4°
